Regional Weather Roundup
Issued by NWS

Home | Current Version | Previous Version | Text Only | Print | Product List | Glossary On
Versions: 1 2 3 4 5 6 7 8 9 10 11 12 13 14 15 16 17 18 19 20 21 22 23 24 25 26 27 28 29 30 31 32 33 34 35 36 37 38 39 40 41 42 43 44 45 46 47 48 49 50
000
ASUS44 KFWD 040001
RWRTX
NORTH TEXAS HOURLY WEATHER ROUNDUP
NATIONAL WEATHER SERVICE FORT WORTH TX
700 PM CDT SUN MAY 03 2015

NOTE: "FAIR" INDICATES FEW OR NO CLOUDS BELOW 12,000 FEET WITH NO
SIGNIFICANT WEATHER AND/OR OBSTRUCTIONS TO VISIBILITY.

TXZ118-119-040100-
DALLAS/FORT WORTH METROPLEX

CITY           SKY/WX    TMP DP  RH WIND       PRES   REMARKS
DFW AIRPORT    MOSUNNY   77  59  53 S16       29.94S
6HR MIN TEMP:  76; 6HR MAX TEMP:  79;

DALLAS LOVE    MOSUNNY   79  57  46 S12G18    29.95S
6HR MIN TEMP:  78; 6HR MAX TEMP:  82;

FTW MEACHAM    SUNNY     78  59  51 SE16      29.93S
6HR MIN TEMP:  78; 6HR MAX TEMP:  81;

DAL-EXECUTIVE  SUNNY     77  56  48 S10G24    29.95S
6HR MIN TEMP:  76; 6HR MAX TEMP:  80;

FTW-ALLIANCE   MOSUNNY   77  59  53 S14       29.93F
6HR MIN TEMP:  76; 6HR MAX TEMP:  79;

FTW-NAS-JRB    SUNNY     80  58  46 S15       29.94S
6HR MIN TEMP:  78; 6HR MAX TEMP:  82;

FTW-SPINKS     SUNNY     79  55  44 SE15      29.95F
ARLINGTON      SUNNY     79  56  45 SE13      29.95S
6HR MIN TEMP:  77; 6HR MAX TEMP:  82;

GRAND PRAIRIE  SUNNY     79  59  50 SE7G16    29.97S
ADDISON        MOSUNNY   77  55  47 SE15G22   29.96F
MESQUITE       SUNNY     77  55  47 SE13      29.97S
LANCASTER      SUNNY     76  57  51 SE10      29.97S
6HR MIN TEMP:  75; 6HR MAX TEMP:  78;

$$

TXZ091>094-102>105-117-120-121-131>134-040100-
NORTH CENTRAL TEXAS

CITY           SKY/WX    TMP DP  RH WIND       PRES   REMARKS
SHRMAN/DENISON SUNNY     77  61  56 SE14      29.97S
6HR MIN TEMP:  77; 6HR MAX TEMP:  80;

BRIDGEPORT     SUNNY     78  62  59 S14       29.94S
6HR MIN TEMP:  77; 6HR MAX TEMP:  80;

DECATUR        SUNNY     77  57  49 SE13      29.94S
6HR MIN TEMP:  76; 6HR MAX TEMP:  79;

DENTON         SUNNY     78  59  51 SE14      29.93F
6HR MIN TEMP:  76; 6HR MAX TEMP:  80;

MCKINNEY       SUNNY     76  57  51 S12       29.96S
6HR MIN TEMP:  76; 6HR MAX TEMP:  79;

ROCKWALL       MOSUNNY   77  57  51 SE12      29.96F
6HR MIN TEMP:  76; 6HR MAX TEMP:  80;

TERRELL        SUNNY     82  57  42 S10       29.98S
6HR MIN TEMP:  78; 6HR MAX TEMP:  85; 6HR PCP: TRACE;

WAXAHACHIE     SUNNY     77  59  53 SE10      29.97S
6HR MIN TEMP:  76; 6HR MAX TEMP:  80;

GRANBURY       MOSUNNY   82  57  43 SE13G20   29.93F
6HR MIN TEMP:  80; 6HR MAX TEMP:  84;

$$

TXZ083>090-098>101-113>116-127>130-139>142-154-155-040100-
WESTERN NORTH TEXAS

CITY           SKY/WX    TMP DP  RH WIND       PRES   REMARKS
WICHITA FALLS  SUNNY     79  60  52 SE18      29.88S
6HR MIN TEMP:  79; 6HR MAX TEMP:  82;

WF-KICKAPOO    SUNNY     82  58  43 SE17      29.90S
6HR MIN TEMP:  81; 6HR MAX TEMP:  85;

ABILENE        SUNNY     82  54  37 SE18G26   29.90F
6HR MIN TEMP:  78; 6HR MAX TEMP:  84;

ABILENE-DYESS  SUNNY     83  52  33 S16       29.87F
6HR MIN TEMP:  78; 6HR MAX TEMP:  85;

BRECKENRIDGE   SUNNY     83  53  35 S12G17    29.90S
6HR MIN TEMP:  79; 6HR MAX TEMP:  84;

MINERAL WELLS  SUNNY     80  56  43 S13       29.91S
6HR MIN TEMP:  78; 6HR MAX TEMP:  83;

STEPHENVILLE   SUNNY     79  55  43 SE9       29.96F
6HR MIN TEMP:  76; 6HR MAX TEMP:  81;

COMANCHE       SUNNY     79  55  43 S12       29.94S
6HR MIN TEMP:  76; 6HR MAX TEMP:  82;

$$

TXZ143>147-156>162-174-175-040100-
CENTRAL TEXAS

CITY           SKY/WX    TMP DP  RH WIND       PRES   REMARKS
WACO           MOSUNNY   79  56  45 S15       29.95S
6HR MIN TEMP:  79; 6HR MAX TEMP:  82;

WACO-TSTC      SUNNY     79  57  47 S8        29.96S
WACO-MCGREGOR  SUNNY     81  55  41 S16G22    29.96S
6HR MIN TEMP:  79; 6HR MAX TEMP:  82;

CORSICANA      SUNNY     79  59  50 S9        29.98F
6HR MIN TEMP:  77; 6HR MAX TEMP:  81;

MEXIA          SUNNY     78  56  47 S8        29.97S
6HR MIN TEMP:  75; 6HR MAX TEMP:  80;

HEARNE         SUNNY     80  61  52 S6        29.97S
6HR MIN TEMP:  77; 6HR MAX TEMP:  82;

TEMPLE         SUNNY     79  52  38 SE13      29.95S
6HR MIN TEMP:  79; 6HR MAX TEMP:  82;

KILLEEN        SUNNY     78  54  42 S12       29.94F
6HR MIN TEMP:  77; 6HR MAX TEMP:  82;

KILLEEN-SKYLRK SUNNY     81  52  36 S13       29.96S
6HR MIN TEMP:  81; 6HR MAX TEMP:  82;

HAMILTON       SUNNY     79  54  42 S13G21    29.95S
6HR MIN TEMP:  78; 6HR MAX TEMP:  82;

LAMPASAS       MOSUNNY   79  57  46 SE9       29.95S
6HR MIN TEMP:  78; 6HR MAX TEMP:  82;

$$

TXZ095>097-106>112-122>126-135>138-148>153-164>167-040100-
EAST TEXAS

CITY           SKY/WX    TMP DP  RH WIND       PRES   REMARKS
PARIS          SUNNY     77  54  44 MISG      29.99S
6HR MIN TEMP:  77; 6HR MAX TEMP:  81;

SULPHUR SPRNGS MOSUNNY   76  56  48 S7        30.01S
6HR MIN TEMP:  76; 6HR MAX TEMP:  80;

MINEOLA        SUNNY     79  52  38 S7        30.00S
TYLER          MOSUNNY   79  54  41 S10       29.99S
6HR MIN TEMP:  78; 6HR MAX TEMP:  81;

LONGVIEW       MOSUNNY   79  55  43 S6        30.00S
6HR MIN TEMP:  78; 6HR MAX TEMP:  82;

ATHENS         SUNNY     77  55  47 S3        29.98S
PALESTINE      SUNNY     79  58  48 S3        30.00S
JACKSONVILLE   SUNNY     78  55  44 S6        30.03S
NACOGDOCHES    SUNNY     79  54  41 S5        30.00F
6HR MIN TEMP:  77; 6HR MAX TEMP:  81;

LUFKIN         SUNNY     82  56  40 SE6       30.00S
6HR MIN TEMP:  81; 6HR MAX TEMP:  85;

$$

SUPPLEMENTAL OBSERVATIONS (CENTRAL)

CITY           SKY/WX    TMP DP  RH WIND       PRES   REMARKS
$$

SUPPLEMENTAL OBSERVATIONS (WEST)

CITY           SKY/WX    TMP DP  RH WIND       PRES   REMARKS
$$

SUPPLEMENTAL OBSERVATIONS (EAST)

CITY           SKY/WX    TMP DP  RH WIND       PRES   REMARKS
$$

SUPPLEMENTAL OBSERVATIONS ARE A COLLECTION OF AUTOMATED INSTRUMENTS
THAT ARE MAINTAINED BY A VARIETY OF FEDERAL AND STATE AGENCIES.
CERTAIN ELEMENTS...SUCH AS HUMIDITY VALUES AND SUSTAINED WIND
SPEEDS...MAY BE APPROXIMATED.



USA.gov is the U.S. government's official web portal to all federal, state and local government web resources and services.